Volver al catálogo

YINHE 2-05

ActivoComunicacionesVLEO
NORAD 51948·PAYLOAD·🇨🇳 China
Este nombre de satélite aún no ha sido confirmado por fuentes oficiales.

Lanzado Mar 5, 2022 desde Xichang Satellite Launch Center

Loading…

Próximos Pases (próximas 24 horas)

TLE

ActualizadoSource: Space-Track

Época: Sep 14, 2026, 15:12 UTC

1 51948U 22023C   26257.63370016  .00009777  00000-0  41183-3 0  9994
2 51948  63.4869 327.6550 0115669 352.2934   7.6396 15.17942571251291

Sigue YINHE 2-05 en tiempo real con AllMySat

Download on the App Store